APL Coral — WDF6832 — position and weather

sailwx.info

Track history (hours):
 
Tides and Currents Weather Stations Pressure Air Temp Water Temp Dewpoint Dewpoint Depression Visibility Wind Speed Wind Dir Waves Ship Positions

APL Coral

Owner: APL Maritime Ltd., Bethesda, MD. More information available from US FCC via Universal Licensing System and Coast Guard Vessel Documentation Center.

Last reported at 2016-Jul-28 17:32 UTC. Time now 2016-Jul-28 18:13 UTC.
Position N 01°15' E 103°53'.

Length 275 m; draft 9.8 m.

Type: Cargo ship. MMSI: 367478280.

Date/timePositionNaut miles runAvg speedWind from/ knotsBaromVisibWave heightAir tempDewpointWater temp
2016-Jul-28 17:32N 01°15' E 103°53'0 0.0
2016-Jul-28 16:32N 01°15' E 103°53'0 0.0
2016-Jul-28 15:26N 01°15' E 103°53'0 0.4
2016-Jul-28 14:33N 01°15' E 103°54'5 5.2
2016-Jul-28 13:33N 01°12' E 103°49'4 3.9
2016-Jul-28 12:32N 01°15' E 103°47'0 0.0
2016-Jul-28 11:29N 01°15' E 103°47'0 0.0
2016-Jul-28 10:32N 01°15' E 103°47'0 0.0
2016-Jul-28 09:32N 01°15' E 103°47'0 0.0
2016-Jul-28 08:11N 01°15' E 103°47'0 0.0
2016-Jul-28 07:32N 01°15' E 103°47'0 0.0
2016-Jul-28 06:29N 01°15' E 103°47'0 0.0
2016-Jul-28 05:33N 01°15' E 103°47'0 0.0
2016-Jul-28 04:33N 01°15' E 103°47'0 0.0
2016-Jul-28 03:33N 01°15' E 103°47'0 0.0
2016-Jul-28 02:33N 01°15' E 103°47'0 0.0
2016-Jul-28 01:33N 01°15' E 103°47'1 0.6
2016-Jul-28 00:33N 01°15' E 103°47'6 6.2
2016-Jul-27 23:33N 01°14' E 103°53'6 6.4
2016-Jul-27 22:33N 01°15' E 103°60'7 7.1
2016-Jul-27 21:32N 01°17' E 104°07'  
2016-Jul-25 00:00N 16°42' E 113°42'33618.8 140 / 61009.0 1.026.023.128.0
2016-Jul-24 06:10N 22°17' E 114°06'14 8.7
2016-Jul-24 04:34N 22°25' E 113°53'3 0.2
2016-Jul-23 11:32N 22°28' E 113°52'15 7.6
2016-Jul-23 09:33N 22°19' E 114°06'157 7.3
2016-Jul-22 12:00N 22°36' E 116°54'1228.1 200 / 81009.010.8 4.028.025.228.0
2016-Jul-22 11:33N 22°45' E 117°03'1414.2
2016-Jul-22 10:34N 22°53' E 117°16'1514.5
2016-Jul-22 09:33N 23°02' E 117°28'1514.6
2016-Jul-22 08:32N 23°11' E 117°41'1414.8
2016-Jul-22 07:33N 23°20' E 117°53'1414.5
2016-Jul-22 06:33N 23°29' E 118°06'3416.4
2016-Jul-22 04:28N 23°51' E 118°34'1815.7
2016-Jul-22 03:21N 24°03' E 118°49'1315.7
2016-Jul-22 02:33N 24°11' E 119°00'1615.7
2016-Jul-22 01:32N 24°20' E 119°14'30015.3
2016-Jul-21 06:00N 28°30' E 122°18'4416.9 210 / 151007.0 5.4 4.030.025.828.0
2016-Jul-21 03:24N 29°12' E 122°30'1315.6
2016-Jul-21 02:33N 29°26' E 122°30'1515.1
2016-Jul-21 01:33N 29°41' E 122°29'1413.5
2016-Jul-21 00:32N 29°47' E 122°16'1111.4
2016-Jul-20 23:34N 29°55' E 122°07'1312.5
2016-Jul-20 22:33N 29°57' E 121°52'2 1.6
2016-Jul-20 21:33N 29°57' E 121°50'0 0.0
2016-Jul-20 17:19N 29°57' E 121°50'0 0.0
2016-Jul-20 14:31N 29°57' E 121°50'0 0.0
2016-Jul-20 11:32N 29°57' E 121°50'0 0.1
2016-Jul-20 10:33N 29°57' E 121°50'0 0.5
2016-Jul-20 09:34N 29°57' E 121°51'2 1.7
2016-Jul-20 08:32N 29°57' E 121°53'9 8.9
2016-Jul-20 07:33N 29°56' E 122°02'10 9.8
2016-Jul-20 06:34N 29°51' E 122°12'10 9.9
2016-Jul-20 05:33N 29°45' E 122°21'8 7.4
2016-Jul-20 04:30N 29°45' E 122°30'10 8.8
2016-Jul-20 03:22N 29°51' E 122°39'4010.0
2016-Jul-19 23:21N 30°27' E 122°59'1416.1
2016-Jul-19 22:29N 30°41' E 122°55'3214.5
2016-Jul-19 20:15N 31°05' E 122°30'812.0
2016-Jul-19 19:33N 31°06' E 122°21'1513.2
2016-Jul-19 18:24N 31°14' E 122°05'1213.8
2016-Jul-19 17:30N 31°16' E 121°51'1212.7
2016-Jul-19 16:33N 31°21' E 121°39'3 3.4
2016-Jul-19 15:33N 31°22' E 121°35'0 0.0
2016-Jul-19 14:31N 31°22' E 121°35'0 0.0
2016-Jul-19 13:31N 31°22' E 121°35'0 0.1
2016-Jul-19 12:31N 31°22' E 121°35'0 0.0
2016-Jul-19 11:25N 31°22' E 121°35'0 0.0
2016-Jul-19 10:31N 31°22' E 121°35'0 0.0
2016-Jul-19 09:28N 31°22' E 121°35'0 0.0
2016-Jul-19 08:31N 31°22' E 121°35'0 0.0
2016-Jul-19 07:28N 31°22' E 121°35'1 0.3
2016-Jul-19 04:34N 31°23' E 121°36'9 8.9
2016-Jul-19 03:33N 31°19' E 121°45'1110.6
2016-Jul-19 02:32N 31°15' E 121°57'  
Track history (hours):
 
Tides and Currents Weather Stations Pressure Air Temp Water Temp Dewpoint Dewpoint Depression Visibility Wind Speed Wind Dir Waves Ship Positions

APL Coral

Owner: APL Maritime Ltd., Bethesda, MD. More information available from US FCC via Universal Licensing System and Coast Guard Vessel Documentation Center.

Last reported at 2016-Jul-28 17:32 UTC. Time now 2016-Jul-28 18:13 UTC.
Position N 01°15' E 103°53'.

Length 275 m; draft 9.8 m.

Type: Cargo ship. MMSI: 367478280.

Date/timePositionNaut miles runAvg speedWind from/ knotsBaromVisibWave heightAir tempDewpointWater temp
2016-Jul-28 17:32N 01°15' E 103°53'0 0.0
2016-Jul-28 16:32N 01°15' E 103°53'0 0.0
2016-Jul-28 15:26N 01°15' E 103°53'0 0.4
2016-Jul-28 14:33N 01°15' E 103°54'5 5.2
2016-Jul-28 13:33N 01°12' E 103°49'4 3.9
2016-Jul-28 12:32N 01°15' E 103°47'0 0.0
2016-Jul-28 11:29N 01°15' E 103°47'0 0.0
2016-Jul-28 10:32N 01°15' E 103°47'0 0.0
2016-Jul-28 09:32N 01°15' E 103°47'0 0.0
2016-Jul-28 08:11N 01°15' E 103°47'0 0.0
2016-Jul-28 07:32N 01°15' E 103°47'0 0.0
2016-Jul-28 06:29N 01°15' E 103°47'0 0.0
2016-Jul-28 05:33N 01°15' E 103°47'0 0.0
2016-Jul-28 04:33N 01°15' E 103°47'0 0.0
2016-Jul-28 03:33N 01°15' E 103°47'0 0.0
2016-Jul-28 02:33N 01°15' E 103°47'0 0.0
2016-Jul-28 01:33N 01°15' E 103°47'1 0.6
2016-Jul-28 00:33N 01°15' E 103°47'6 6.2
2016-Jul-27 23:33N 01°14' E 103°53'6 6.4
2016-Jul-27 22:33N 01°15' E 103°60'7 7.1
2016-Jul-27 21:32N 01°17' E 104°07'  
2016-Jul-25 00:00N 16°42' E 113°42'33618.8 140 / 61009.0 1.026.023.128.0
2016-Jul-24 06:10N 22°17' E 114°06'14 8.7
2016-Jul-24 04:34N 22°25' E 113°53'3 0.2
2016-Jul-23 11:32N 22°28' E 113°52'15 7.6
2016-Jul-23 09:33N 22°19' E 114°06'157 7.3
2016-Jul-22 12:00N 22°36' E 116°54'1228.1 200 / 81009.010.8 4.028.025.228.0
2016-Jul-22 11:33N 22°45' E 117°03'1414.2
2016-Jul-22 10:34N 22°53' E 117°16'1514.5
2016-Jul-22 09:33N 23°02' E 117°28'1514.6
2016-Jul-22 08:32N 23°11' E 117°41'1414.8
2016-Jul-22 07:33N 23°20' E 117°53'1414.5
2016-Jul-22 06:33N 23°29' E 118°06'3416.4
2016-Jul-22 04:28N 23°51' E 118°34'1815.7
2016-Jul-22 03:21N 24°03' E 118°49'1315.7
2016-Jul-22 02:33N 24°11' E 119°00'1615.7
2016-Jul-22 01:32N 24°20' E 119°14'30015.3
2016-Jul-21 06:00N 28°30' E 122°18'4416.9 210 / 151007.0 5.4 4.030.025.828.0
2016-Jul-21 03:24N 29°12' E 122°30'1315.6
2016-Jul-21 02:33N 29°26' E 122°30'1515.1
2016-Jul-21 01:33N 29°41' E 122°29'1413.5
2016-Jul-21 00:32N 29°47' E 122°16'1111.4
2016-Jul-20 23:34N 29°55' E 122°07'1312.5
2016-Jul-20 22:33N 29°57' E 121°52'2 1.6
2016-Jul-20 21:33N 29°57' E 121°50'0 0.0
2016-Jul-20 17:19N 29°57' E 121°50'0 0.0
2016-Jul-20 14:31N 29°57' E 121°50'0 0.0
2016-Jul-20 11:32N 29°57' E 121°50'0 0.1
2016-Jul-20 10:33N 29°57' E 121°50'0 0.5
2016-Jul-20 09:34N 29°57' E 121°51'2 1.7
2016-Jul-20 08:32N 29°57' E 121°53'9 8.9
2016-Jul-20 07:33N 29°56' E 122°02'10 9.8
2016-Jul-20 06:34N 29°51' E 122°12'10 9.9
2016-Jul-20 05:33N 29°45' E 122°21'8 7.4
2016-Jul-20 04:30N 29°45' E 122°30'10 8.8
2016-Jul-20 03:22N 29°51' E 122°39'4010.0
2016-Jul-19 23:21N 30°27' E 122°59'1416.1
2016-Jul-19 22:29N 30°41' E 122°55'3214.5
2016-Jul-19 20:15N 31°05' E 122°30'812.0
2016-Jul-19 19:33N 31°06' E 122°21'1513.2
2016-Jul-19 18:24N 31°14' E 122°05'1213.8
2016-Jul-19 17:30N 31°16' E 121°51'1212.7
2016-Jul-19 16:33N 31°21' E 121°39'3 3.4
2016-Jul-19 15:33N 31°22' E 121°35'0 0.0
2016-Jul-19 14:31N 31°22' E 121°35'0 0.0
2016-Jul-19 13:31N 31°22' E 121°35'0 0.1
2016-Jul-19 12:31N 31°22' E 121°35'0 0.0
2016-Jul-19 11:25N 31°22' E 121°35'0 0.0
2016-Jul-19 10:31N 31°22' E 121°35'0 0.0
2016-Jul-19 09:28N 31°22' E 121°35'0 0.0
2016-Jul-19 08:31N 31°22' E 121°35'0 0.0
2016-Jul-19 07:28N 31°22' E 121°35'1 0.3
2016-Jul-19 04:34N 31°23' E 121°36'9 8.9
2016-Jul-19 03:33N 31°19' E 121°45'1110.6
2016-Jul-19 02:32N 31°15' E 121°57'  

Dump ship's entire track history